TimeMDT,TemperatureF,Dew PointF,Humidity,Sea Level PressureIn,VisibilityMPH,Wind Direction,Wind SpeedMPH,Gust SpeedMPH,PrecipitationIn,Events,Conditions,WindDirDegrees,DateUTC
12:15 AM,82.6,31.6,16,30.15,10.0,NNE,12.7,-,N/A,,Clear,30,2013-07-02 06:15:00
12:35 AM,82.8,32.9,17,30.15,10.0,NNE,12.7,-,N/A,,Clear,30,2013-07-02 06:35:00
12:55 AM,82.4,34.9,18,30.15,10.0,NE,11.5,-,N/A,,Clear,40,2013-07-02 06:55:00
1:15 AM,78.6,34.0,20,30.15,10.0,ENE,8.1,-,N/A,,Clear,60,2013-07-02 07:15:00
1:35 AM,75.4,35.6,24,30.16,10.0,South,3.5,-,N/A,,Clear,170,2013-07-02 07:35:00
1:55 AM,78.3,36.3,22,30.17,10.0,SE,4.6,-,N/A,,Clear,140,2013-07-02 07:55:00
2:15 AM,76.5,35.2,22,30.17,10.0,East,6.9,-,N/A,,Clear,100,2013-07-02 08:15:00
2:35 AM,74.8,35.1,23,30.17,10.0,NE,8.1,-,N/A,,Clear,40,2013-07-02 08:35:00
2:55 AM,73.0,36.3,26,30.17,10.0,Calm,Calm,-,N/A,,Clear,0,2013-07-02 08:55:00
3:15 AM,70.7,35.2,27,30.17,10.0,East,5.8,-,N/A,,Clear,90,2013-07-02 09:15:00
3:35 AM,69.6,37.0,30,30.18,10.0,NE,4.6,-,N/A,,Clear,50,2013-07-02 09:35:00
3:55 AM,70.0,35.6,28,30.18,10.0,ENE,6.9,-,N/A,,Clear,60,2013-07-02 09:55:00
4:15 AM,68.4,39.0,34,30.18,10.0,NE,5.8,-,N/A,,Clear,40,2013-07-02 10:15:00
4:35 AM,70.0,37.6,31,30.19,10.0,East,5.8,-,N/A,,Clear,90,2013-07-02 10:35:00
4:55 AM,68.0,36.1,31,30.19,10.0,ENE,5.8,-,N/A,,Clear,70,2013-07-02 10:55:00
5:15 AM,66.6,35.6,32,30.19,10.0,ENE,3.5,-,N/A,,Clear,70,2013-07-02 11:15:00
5:35 AM,66.0,38.5,36,30.19,10.0,Calm,Calm,-,N/A,,Clear,0,2013-07-02 11:35:00
5:55 AM,67.1,39.0,36,30.19,10.0,Calm,Calm,-,N/A,,Clear,0,2013-07-02 11:55:00
6:15 AM,66.2,41.4,40,30.20,10.0,NE,4.6,-,N/A,,Clear,40,2013-07-02 12:15:00
6:35 AM,67.3,38.3,35,30.20,10.0,NE,5.8,-,N/A,,Clear,50,2013-07-02 12:35:00
6:55 AM,68.4,36.9,31,30.20,10.0,ENE,4.6,-,N/A,,Clear,60,2013-07-02 12:55:00
7:15 AM,69.1,37.0,31,30.20,10.0,Calm,Calm,-,N/A,,Clear,0,2013-07-02 13:15:00
7:35 AM,68.7,36.9,31,30.21,10.0,ESE,4.6,-,N/A,,Clear,120,2013-07-02 13:35:00
7:55 AM,69.1,40.5,35,30.22,10.0,Calm,Calm,-,N/A,Thunderstorm,Clear,0,2013-07-02 13:55:00
8:15 AM,70.3,38.8,32,30.22,10.0,Calm,Calm,-,N/A,Thunderstorm,Clear,0,2013-07-02 14:15:00
8:35 AM,71.2,39.6,32,30.22,10.0,Calm,Calm,-,N/A,,Clear,0,2013-07-02 14:35:00
8:55 AM,72.9,39.9,30,30.22,10.0,Calm,Calm,-,N/A,,Clear,0,2013-07-02 14:55:00
9:15 AM,75.6,40.6,28,30.22,10.0,Calm,Calm,-,N/A,,Clear,0,2013-07-02 15:15:00
9:35 AM,76.1,40.6,28,30.21,10.0,Calm,Calm,-,N/A,,Clear,0,2013-07-02 15:35:00
9:55 AM,77.4,43.2,30,30.21,10.0,South,3.5,-,N/A,,Clear,180,2013-07-02 15:55:00
10:15 AM,79.7,40.8,25,30.20,10.0,Calm,Calm,-,N/A,,Clear,0,2013-07-02 16:15:00
10:35 AM,82.6,40.5,22,30.20,10.0,ESE,3.5,-,N/A,,Clear,120,2013-07-02 16:35:00
10:55 AM,84.2,41.0,22,30.19,10.0,SSE,4.6,-,N/A,,Clear,160,2013-07-02 16:55:00
11:15 AM,85.1,39.9,20,30.19,10.0,Calm,Calm,-,N/A,,Clear,0,2013-07-02 17:15:00
11:35 AM,87.4,39.0,18,30.18,10.0,Calm,Calm,-,N/A,,Clear,0,2013-07-02 17:35:00
11:55 AM,88.0,38.5,17,30.18,10.0,SSW,4.6,-,N/A,,Clear,210,2013-07-02 17:55:00
12:15 PM,89.6,40.8,18,30.17,10.0,South,5.8,-,N/A,,Clear,180,2013-07-02 18:15:00
12:35 PM,90.0,40.3,18,30.15,10.0,SSE,4.6,-,N/A,,Clear,160,2013-07-02 18:35:00
12:55 PM,91.8,37.8,15,30.15,10.0,SSW,9.2,-,N/A,,Scattered Clouds,210,2013-07-02 18:55:00
1:15 PM,92.3,35.8,14,30.14,10.0,SSW,8.1,-,N/A,,Scattered Clouds,200,2013-07-02 19:15:00
1:35 PM,92.7,35.4,13,30.12,10.0,SSW,6.9,-,N/A,,Clear,210,2013-07-02 19:35:00
1:55 PM,93.7,35.6,13,30.11,10.0,South,6.9,-,N/A,,Clear,170,2013-07-02 19:55:00
2:15 PM,95.2,36.5,13,30.10,10.0,SSE,10.4,-,N/A,,Scattered Clouds,150,2013-07-02 20:15:00
2:35 PM,96.4,36.1,12,30.09,10.0,East,9.2,-,N/A,,Scattered Clouds,80,2013-07-02 20:35:00
2:55 PM,95.0,35.4,12,30.08,10.0,Calm,Calm,-,N/A,,Scattered Clouds,0,2013-07-02 20:55:00
3:15 PM,94.3,35.2,13,30.08,10.0,East,5.8,-,N/A,,Clear,90,2013-07-02 21:15:00
3:35 PM,94.3,35.8,13,30.07,10.0,North,6.9,10.4,N/A,,Clear,360,2013-07-02 21:35:00
3:55 PM,98.1,34.7,11,30.06,10.0,North,6.9,23.0,N/A,,Scattered Clouds,360,2013-07-02 21:55:00
4:15 PM,97.9,34.2,11,30.05,10.0,NNW,13.8,24.2,N/A,,Scattered Clouds,340,2013-07-02 22:15:00
4:35 PM,98.1,35.1,11,30.05,10.0,NNE,16.1,24.2,N/A,,Clear,30,2013-07-02 22:35:00
4:55 PM,98.4,34.0,11,30.04,10.0,North,15.0,19.6,N/A,,Clear,350,2013-07-02 22:55:00
5:15 PM,98.1,34.0,11,30.04,10.0,NNE,19.6,26.5,N/A,,Clear,20,2013-07-02 23:15:00
5:35 PM,96.8,32.5,10,30.03,10.0,North,12.7,27.6,N/A,,Clear,360,2013-07-02 23:35:00
5:55 PM,97.2,31.1,10,30.03,10.0,North,18.4,25.3,N/A,,Clear,10,2013-07-02 23:55:00
6:15 PM,96.8,31.3,10,30.03,10.0,North,13.8,23.0,N/A,,Clear,360,2013-07-03 00:15:00
6:35 PM,96.1,32.0,10,30.02,10.0,NNW,16.1,21.9,N/A,,Clear,340,2013-07-03 00:35:00
6:55 PM,95.9,32.2,11,30.02,10.0,North,16.1,23.0,N/A,,Clear,350,2013-07-03 00:55:00
7:15 PM,94.3,31.1,11,30.02,10.0,North,17.3,23.0,N/A,,Clear,10,2013-07-03 01:15:00
7:35 PM,93.7,31.8,11,30.02,10.0,North,13.8,18.4,N/A,,Clear,360,2013-07-03 01:35:00
7:55 PM,92.8,31.6,11,30.03,10.0,North,15.0,18.4,N/A,,Clear,350,2013-07-03 01:55:00
8:15 PM,91.4,31.8,12,30.03,10.0,North,9.2,17.3,N/A,,Clear,360,2013-07-03 02:15:00
8:35 PM,88.3,32.4,14,30.04,10.0,North,11.5,16.1,N/A,,Clear,10,2013-07-03 02:35:00
8:55 PM,87.3,34.9,15,30.04,10.0,North,6.9,10.4,N/A,,Clear,350,2013-07-03 02:55:00
9:15 PM,82.8,37.8,20,30.05,10.0,North,6.9,-,N/A,,Clear,10,2013-07-03 03:15:00
9:35 PM,81.5,36.7,20,30.05,10.0,North,6.9,-,N/A,,Clear,10,2013-07-03 03:35:00
9:55 PM,81.1,34.9,19,30.06,10.0,NNE,6.9,-,N/A,,Clear,20,2013-07-03 03:55:00
10:15 PM,79.5,37.0,22,30.07,10.0,North,8.1,-,N/A,,Clear,360,2013-07-03 04:15:00
10:35 PM,78.3,36.0,22,30.07,10.0,North,9.2,-,N/A,,Clear,10,2013-07-03 04:35:00
10:55 PM,76.5,37.2,24,30.07,10.0,NNE,9.2,-,N/A,,Clear,20,2013-07-03 04:55:00
11:15 PM,78.8,34.0,20,30.08,10.0,East,6.9,-,N/A,,Clear,80,2013-07-03 05:15:00
11:35 PM,74.5,34.9,24,30.08,10.0,East,8.1,-,N/A,,Clear,80,2013-07-03 05:35:00
11:55 PM,73.8,34.7,24,30.08,10.0,ENE,9.2,-,N/A,,Clear,70,2013-07-03 05:55:00